Showing default

KINEIS-4E, 63300

Orbit data source: Space-Track

KINEIS-4E, 63300 is a French payload satellite in SSO that was launched on Tue, 18 Mar 2025 UTC via an ELECTRON launch vehicle from the Rocket Lab Launch Complex (RLLC). Payload-class satellites include a variety of spacecraft equipped with specific instruments for various scientific and technological missions. These include communications satellites like Starlink; space stations such as the ISS; scientific satellites like the Hubble; Earth observation satellites from companies like Planet Labs, Umbra, and HawkEye 360; GPS; miniature CubeSats for education and research; and military/defense satellites.

Loading next visibility...
Identifier
63300, 2025-056A
Orbit
SSO
Country
Flag of FRFR
Related business
Manufacturer
KINEIS
Mission
Operational Commercial Communications
Bus & Motor
CUBESAT 16U, Unknown motor
Mass
28 kg wet, 28 kg dry
Launch date (UTC)
2025-03-18 (9 months ago)
Launch vehicle
ELECTRON
Launch site
Rocket Lab Launch Complex (RLLC)
Object type
Payload
Rocket body
Debris
Shape & HBR
Box + 2 Pan + 1 Ant, 1.0 m
Radar Cross Section
0.229 m², Medium (>0.1 m² and < 1m²)

Expand to show TLE details & history
Last TLE update: 2 days ago

TLE from 2 days ago
0 KINEIS-4E
1 63300U 25056A   25348.12353867  .00003010  00000-0  48336-3 0  9998
2 63300  98.0004 110.8137 0001683 125.0471 235.0894 14.72358524 39895
Epoch: 2025-12-14T02:57Z
TLE epoch observation values (Epoch: 2025-12-14T02:57:53.741Z)
Latitude
-0.00005°
Longitude
-16.70119°
Altitude
657.234 km
Speed
7.528 km/s
True Right ascension
07h 23m 15s
True Declination
0° 00' 00"
Sunlit
Object was in full shadow at epoch
Visualization orbit readout
Latitude
Unknown
Longitude
Unknown
Altitude
Unknown
Speed
Unknown
Apparent Right ascension
Unknown
Apparent Declination
Unknown
Sunlit
N/A
Visualization observer readout
Local Sidereal Time
23:41:17
Azimuth
Unknown
Elevation
Unknown
Doppler factor
Unknown
Orbital elements
Apogee altitude
651.787 km
Perigee altitude
649.421 km
Semi-major axis
7,028.741 km
Eccentricity
0.00017
Inclination
98.0004°
RAAN
110.8137°
Arg. of periapsis
125.0471°
True anomaly
235.07359°
Mean anomaly
235.0894°
Eccentric anomaly
235.08149°
Mean motion
3.68321 °/min
Orbital period
97.74 mins
BSTAR
0.00048336
Loading maneuver chart data...
Computing Atmospheric mass density...
Loading historical data...
Loading historical data...
Loading historical data...
Loading historical data...
Loading historical data...
Loading historical data...
Loading historical data...

Documentation

Showing up to 5 results
|